﻿測定場所 (Monitoring sites),日付 (Measurement date),時間 (Measurement time),線量率 最大値 (max) μGy/h,線量率 最小値 (min) μGy/h,線量率 平均値 (average) μGy/h,
江戸川 (Edogawa),2015-09-20,23:01～24:00,0.0642,0.0583,0.0607,
江戸川 (Edogawa),2015-09-20,22:01～23:00,0.0638,0.0574,0.0604,
江戸川 (Edogawa),2015-09-20,21:01～22:00,0.0644,0.0571,0.0607,
江戸川 (Edogawa),2015-09-20,20:01～21:00,0.0637,0.0567,0.0603,
江戸川 (Edogawa),2015-09-20,19:01～20:00,0.0644,0.0571,0.0605,
江戸川 (Edogawa),2015-09-20,18:01～19:00,0.0642,0.0573,0.0606,
江戸川 (Edogawa),2015-09-20,17:01～18:00,0.0640,0.0571,0.0608,
江戸川 (Edogawa),2015-09-20,16:01～17:00,0.0637,0.0578,0.0605,
江戸川 (Edogawa),2015-09-20,15:01～16:00,0.0633,0.0566,0.0601,
江戸川 (Edogawa),2015-09-20,14:01～15:00,0.0635,0.0561,0.0601,
江戸川 (Edogawa),2015-09-20,13:01～14:00,0.0647,0.0557,0.0605,
江戸川 (Edogawa),2015-09-20,12:01～13:00,0.0640,0.0575,0.0606,
江戸川 (Edogawa),2015-09-20,11:01～12:00,0.0629,0.0579,0.0606,
江戸川 (Edogawa),2015-09-20,10:01～11:00,0.0634,0.0569,0.0604,
江戸川 (Edogawa),2015-09-20,09:01～10:00,0.0635,0.0575,0.0605,
江戸川 (Edogawa),2015-09-20,08:01～09:00,0.0631,0.0573,0.0604,
江戸川 (Edogawa),2015-09-20,07:01～08:00,0.0630,0.0578,0.0605,
江戸川 (Edogawa),2015-09-20,06:01～07:00,0.0637,0.0560,0.0604,
江戸川 (Edogawa),2015-09-20,05:01～06:00,0.0636,0.0568,0.0603,
江戸川 (Edogawa),2015-09-20,04:01～05:00,0.0650,0.0555,0.0604,
江戸川 (Edogawa),2015-09-20,03:01～04:00,0.0650,0.0575,0.0603,
江戸川 (Edogawa),2015-09-20,02:01～03:00,0.0641,0.0553,0.0601,
江戸川 (Edogawa),2015-09-20,01:01～02:00,0.0634,0.0575,0.0605,
江戸川 (Edogawa),2015-09-20,00:01～01:00,0.0627,0.0578,0.0607,
江戸川 (Edogawa),2015-09-19,23:01～24:00,0.0630,0.0566,0.0601,
江戸川 (Edogawa),2015-09-19,22:01～23:00,0.0634,0.0566,0.0597,
江戸川 (Edogawa),2015-09-19,21:01～22:00,0.0633,0.0573,0.0598,
江戸川 (Edogawa),2015-09-19,20:01～21:00,0.0634,0.0566,0.0600,
江戸川 (Edogawa),2015-09-19,19:01～20:00,0.0642,0.0562,0.0600,
江戸川 (Edogawa),2015-09-19,18:01～19:00,0.0632,0.0567,0.0598,
江戸川 (Edogawa),2015-09-19,17:01～18:00,0.0636,0.0565,0.0595,
江戸川 (Edogawa),2015-09-19,16:01～17:00,0.0625,0.0565,0.0599,
江戸川 (Edogawa),2015-09-19,15:01～16:00,0.0627,0.0562,0.0599,
江戸川 (Edogawa),2015-09-19,14:01～15:00,0.0638,0.0568,0.0602,
江戸川 (Edogawa),2015-09-19,13:01～14:00,0.0627,0.0558,0.0595,
江戸川 (Edogawa),2015-09-19,12:01～13:00,0.0629,0.0572,0.0600,
江戸川 (Edogawa),2015-09-19,11:01～12:00,0.0622,0.0567,0.0597,
江戸川 (Edogawa),2015-09-19,10:01～11:00,0.0633,0.0562,0.0599,
江戸川 (Edogawa),2015-09-19,09:01～10:00,0.0646,0.0567,0.0598,
江戸川 (Edogawa),2015-09-19,08:01～09:00,0.0624,0.0559,0.0595,
江戸川 (Edogawa),2015-09-19,07:01～08:00,0.0639,0.0563,0.0596,
江戸川 (Edogawa),2015-09-19,06:01～07:00,0.0627,0.0557,0.0592,
江戸川 (Edogawa),2015-09-19,05:01～06:00,0.0625,0.0557,0.0594,
江戸川 (Edogawa),2015-09-19,04:01～05:00,0.0620,0.0566,0.0595,
江戸川 (Edogawa),2015-09-19,03:01～04:00,0.0621,0.0555,0.0596,
江戸川 (Edogawa),2015-09-19,02:01～03:00,0.0622,0.0563,0.0595,
江戸川 (Edogawa),2015-09-19,01:01～02:00,0.0628,0.0569,0.0595,
江戸川 (Edogawa),2015-09-19,00:01～01:00,0.0629,0.0564,0.0597,
江戸川 (Edogawa),2015-09-18,23:01～24:00,0.0635,0.0576,0.0609,
江戸川 (Edogawa),2015-09-18,22:01～23:00,0.0629,0.0562,0.0594,
江戸川 (Edogawa),2015-09-18,21:01～22:00,0.0636,0.0568,0.0596,
江戸川 (Edogawa),2015-09-18,20:01～21:00,0.0643,0.0555,0.0602,
江戸川 (Edogawa),2015-09-18,19:01～20:00,0.0641,0.0574,0.0606,
江戸川 (Edogawa),2015-09-18,18:01～19:00,0.0659,0.0555,0.0595,
江戸川 (Edogawa),2015-09-18,17:01～18:00,0.0619,0.0559,0.0592,
江戸川 (Edogawa),2015-09-18,16:01～17:00,0.0629,0.0551,0.0592,
江戸川 (Edogawa),2015-09-18,15:01～16:00,0.0624,0.0562,0.0595,
江戸川 (Edogawa),2015-09-18,14:01～15:00,0.0625,0.0546,0.0588,
江戸川 (Edogawa),2015-09-18,13:01～14:00,0.0622,0.0558,0.0588,
江戸川 (Edogawa),2015-09-18,12:01～13:00,0.0627,0.0558,0.0591,
江戸川 (Edogawa),2015-09-18,11:01～12:00,0.0638,0.0568,0.0604,
江戸川 (Edogawa),2015-09-18,10:01～11:00,0.0651,0.0585,0.0619,
江戸川 (Edogawa),2015-09-18,09:01～10:00,0.0708,0.0600,0.0654,
江戸川 (Edogawa),2015-09-18,08:01～09:00,0.0736,0.0664,0.0705,
江戸川 (Edogawa),2015-09-18,07:01～08:00,0.0736,0.0646,0.0684,
江戸川 (Edogawa),2015-09-18,06:01～07:00,0.0723,0.0639,0.0690,
江戸川 (Edogawa),2015-09-18,05:01～06:00,0.0710,0.0607,0.0660,
江戸川 (Edogawa),2015-09-18,04:01～05:00,0.0632,0.0562,0.0600,
江戸川 (Edogawa),2015-09-18,03:01～04:00,0.0647,0.0573,0.0609,
江戸川 (Edogawa),2015-09-18,02:01～03:00,0.0654,0.0569,0.0606,
江戸川 (Edogawa),2015-09-18,01:01～02:00,0.0623,0.0559,0.0589,
江戸川 (Edogawa),2015-09-18,00:01～01:00,0.0633,0.0559,0.0593,
江戸川 (Edogawa),2015-09-17,23:01～24:00,0.0630,0.0554,0.0593,
江戸川 (Edogawa),2015-09-17,22:01～23:00,0.0635,0.0557,0.0593,
江戸川 (Edogawa),2015-09-17,21:01～22:00,0.0630,0.0576,0.0604,
江戸川 (Edogawa),2015-09-17,20:01～21:00,0.0638,0.0567,0.0606,
江戸川 (Edogawa),2015-09-17,19:01～20:00,0.0644,0.0573,0.0611,
江戸川 (Edogawa),2015-09-17,18:01～19:00,0.0643,0.0575,0.0609,
江戸川 (Edogawa),2015-09-17,17:01～18:00,0.0641,0.0558,0.0602,
江戸川 (Edogawa),2015-09-17,16:01～17:00,0.0638,0.0565,0.0601,
江戸川 (Edogawa),2015-09-17,15:01～16:00,0.0684,0.0601,0.0640,
江戸川 (Edogawa),2015-09-17,14:01～15:00,0.0684,0.0613,0.0648,
江戸川 (Edogawa),2015-09-17,13:01～14:00,0.0673,0.0596,0.0636,
江戸川 (Edogawa),2015-09-17,12:01～13:00,0.0706,0.0617,0.0666,
江戸川 (Edogawa),2015-09-17,11:01～12:00,0.0701,0.0629,0.0665,
江戸川 (Edogawa),2015-09-17,10:01～11:00,0.0705,0.0624,0.0660,
江戸川 (Edogawa),2015-09-17,09:01～10:00,0.0704,0.0627,0.0667,
江戸川 (Edogawa),2015-09-17,08:01～09:00,0.0702,0.0623,0.0660,
江戸川 (Edogawa),2015-09-17,07:01～08:00,0.0703,0.0608,0.0661,
江戸川 (Edogawa),2015-09-17,06:01～07:00,0.0710,0.0628,0.0678,
江戸川 (Edogawa),2015-09-17,05:01～06:00,0.0699,0.0621,0.0662,
江戸川 (Edogawa),2015-09-17,04:01～05:00,0.0674,0.0601,0.0638,
江戸川 (Edogawa),2015-09-17,03:01～04:00,0.0665,0.0606,0.0631,
江戸川 (Edogawa),2015-09-17,02:01～03:00,0.0650,0.0586,0.0620,
江戸川 (Edogawa),2015-09-17,01:01～02:00,0.0657,0.0597,0.0624,
江戸川 (Edogawa),2015-09-17,00:01～01:00,0.0672,0.0605,0.0637,
江戸川 (Edogawa),2015-09-16,23:01～24:00,0.0679,0.0608,0.0645,
江戸川 (Edogawa),2015-09-16,22:01～23:00,0.0690,0.0619,0.0651,
江戸川 (Edogawa),2015-09-16,21:01～22:00,0.0695,0.0616,0.0650,
江戸川 (Edogawa),2015-09-16,20:01～21:00,0.0677,0.0593,0.0638,
江戸川 (Edogawa),2015-09-16,19:01～20:00,0.0666,0.0588,0.0623,
江戸川 (Edogawa),2015-09-16,18:01～19:00,0.0669,0.0606,0.0634,
江戸川 (Edogawa),2015-09-16,17:01～18:00,0.0681,0.0586,0.0627,
江戸川 (Edogawa),2015-09-16,16:01～17:00,0.0658,0.0575,0.0616,
江戸川 (Edogawa),2015-09-16,15:01～16:00,0.0647,0.0578,0.0618,
江戸川 (Edogawa),2015-09-16,14:01～15:00,0.0658,0.0581,0.0617,
江戸川 (Edogawa),2015-09-16,13:01～14:00,0.0648,0.0583,0.0616,
江戸川 (Edogawa),2015-09-16,12:01～13:00,0.0642,0.0575,0.0614,
江戸川 (Edogawa),2015-09-16,11:01～12:00,0.0648,0.0572,0.0611,
江戸川 (Edogawa),2015-09-16,10:01～11:00,0.0652,0.0570,0.0606,
江戸川 (Edogawa),2015-09-16,09:01～10:00,0.0646,0.0570,0.0613,
江戸川 (Edogawa),2015-09-16,08:01～09:00,0.0646,0.0581,0.0614,
江戸川 (Edogawa),2015-09-16,07:01～08:00,0.0672,0.0584,0.0616,
江戸川 (Edogawa),2015-09-16,06:01～07:00,0.0661,0.0568,0.0616,
江戸川 (Edogawa),2015-09-16,05:01～06:00,0.0649,0.0577,0.0613,
江戸川 (Edogawa),2015-09-16,04:01～05:00,0.0653,0.0587,0.0616,
江戸川 (Edogawa),2015-09-16,03:01～04:00,0.0661,0.0570,0.0615,
江戸川 (Edogawa),2015-09-16,02:01～03:00,0.0663,0.0577,0.0615,
江戸川 (Edogawa),2015-09-16,01:01～02:00,0.0653,0.0584,0.0615,
江戸川 (Edogawa),2015-09-16,00:01～01:00,0.0661,0.0585,0.0614,
江戸川 (Edogawa),2015-09-15,23:01～24:00,0.0647,0.0583,0.0617,
江戸川 (Edogawa),2015-09-15,22:01～23:00,0.0651,0.0582,0.0613,
江戸川 (Edogawa),2015-09-15,21:01～22:00,0.0654,0.0581,0.0618,
江戸川 (Edogawa),2015-09-15,20:01～21:00,0.0672,0.0586,0.0616,
江戸川 (Edogawa),2015-09-15,19:01～20:00,0.0656,0.0573,0.0614,
江戸川 (Edogawa),2015-09-15,18:01～19:00,0.0637,0.0581,0.0611,
江戸川 (Edogawa),2015-09-15,17:01～18:00,0.0648,0.0582,0.0615,
江戸川 (Edogawa),2015-09-15,16:01～17:00,0.0651,0.0571,0.0617,
江戸川 (Edogawa),2015-09-15,15:01～16:00,0.0645,0.0567,0.0615,
江戸川 (Edogawa),2015-09-15,14:01～15:00,0.0646,0.0569,0.0611,
江戸川 (Edogawa),2015-09-15,13:01～14:00,0.0648,0.0585,0.0614,
江戸川 (Edogawa),2015-09-15,12:01～13:00,0.0657,0.0567,0.0608,
江戸川 (Edogawa),2015-09-15,11:01～12:00,0.0655,0.0579,0.0614,
江戸川 (Edogawa),2015-09-15,10:01～11:00,0.0652,0.0589,0.0613,
江戸川 (Edogawa),2015-09-15,09:01～10:00,0.0657,0.0576,0.0612,
江戸川 (Edogawa),2015-09-15,08:01～09:00,0.0657,0.0581,0.0614,
江戸川 (Edogawa),2015-09-15,07:01～08:00,0.0647,0.0577,0.0613,
江戸川 (Edogawa),2015-09-15,06:01～07:00,0.0642,0.0577,0.0614,
江戸川 (Edogawa),2015-09-15,05:01～06:00,0.0655,0.0590,0.0614,
江戸川 (Edogawa),2015-09-15,04:01～05:00,0.0646,0.0578,0.0613,
江戸川 (Edogawa),2015-09-15,03:01～04:00,0.0647,0.0583,0.0616,
江戸川 (Edogawa),2015-09-15,02:01～03:00,0.0642,0.0575,0.0610,
江戸川 (Edogawa),2015-09-15,01:01～02:00,0.0630,0.0571,0.0607,
江戸川 (Edogawa),2015-09-15,00:01～01:00,0.0661,0.0581,0.0614,
江戸川 (Edogawa),2015-09-14,23:01～24:00,0.0654,0.0570,0.0612,
江戸川 (Edogawa),2015-09-14,22:01～23:00,0.0641,0.0583,0.0614,
江戸川 (Edogawa),2015-09-14,21:01～22:00,0.0646,0.0575,0.0613,
江戸川 (Edogawa),2015-09-14,20:01～21:00,0.0648,0.0572,0.0613,
江戸川 (Edogawa),2015-09-14,19:01～20:00,0.0651,0.0578,0.0613,
江戸川 (Edogawa),2015-09-14,18:01～19:00,0.0643,0.0584,0.0608,
江戸川 (Edogawa),2015-09-14,17:01～18:00,0.0637,0.0582,0.0609,
江戸川 (Edogawa),2015-09-14,16:01～17:00,0.0651,0.0578,0.0611,
江戸川 (Edogawa),2015-09-14,15:01～16:00,0.0659,0.0581,0.0612,
江戸川 (Edogawa),2015-09-14,14:01～15:00,0.0643,0.0576,0.0608,
江戸川 (Edogawa),2015-09-14,13:01～14:00,0.0646,0.0571,0.0610,
江戸川 (Edogawa),2015-09-14,12:01～13:00,0.0640,0.0578,0.0609,
江戸川 (Edogawa),2015-09-14,11:01～12:00,0.0645,0.0588,0.0612,
江戸川 (Edogawa),2015-09-14,10:01～11:00,0.0644,0.0568,0.0611,
江戸川 (Edogawa),2015-09-14,09:01～10:00,0.0650,0.0563,0.0613,
江戸川 (Edogawa),2015-09-14,08:01～09:00,0.0651,0.0579,0.0612,
江戸川 (Edogawa),2015-09-14,07:01～08:00,0.0651,0.0577,0.0612,
江戸川 (Edogawa),2015-09-14,06:01～07:00,0.0644,0.0572,0.0614,
江戸川 (Edogawa),2015-09-14,05:01～06:00,0.0656,0.0580,0.0616,
江戸川 (Edogawa),2015-09-14,04:01～05:00,0.0648,0.0576,0.0615,
江戸川 (Edogawa),2015-09-14,03:01～04:00,0.0636,0.0576,0.0611,
江戸川 (Edogawa),2015-09-14,02:01～03:00,0.0648,0.0573,0.0612,
江戸川 (Edogawa),2015-09-14,01:01～02:00,0.0653,0.0572,0.0615,
江戸川 (Edogawa),2015-09-14,00:01～01:00,0.0634,0.0567,0.0602,
